Regional Weather Roundup
Issued by NWS

Home | Current Version | Previous Version | Graphics & Text | Print | Product List | Glossary On
Versions: 1 2 3 4 5 6 7 8 9 10 11 12 13 14 15 16 17 18 19 20 21 22 23 24 25 26 27 28 29 30 31 32 33 34 35 36 37 38 39 40 41 42 43 44 45 46 47 48 49 50
000
ASUS43 KIND 272009
RWRIN

WEATHER ROUNDUP FOR INDIANA
NATIONAL WEATHER SERVICE INDIANAPOLIS IN
400 PM EDT WED MAY 27 2015

NOTE: "FAIR" INDICATES FEW OR NO CLOUDS BELOW 12,000 FEET WITH NO
SIGNIFICANT WEATHER AND/OR OBSTRUCTIONS TO VISIBILITY.

* - STATION DOES NOT REPORT WEATHER SUCH AS PRECIPITATION OR FOG.

+ - STATION NOT QUALITY CONTROLLED BY THE NATIONAL WEATHER SERVICE.
    USE DATA WITH CAUTION...ESPECIALLY DEWPOINT AND RELATIVE
    HUMIDITY OBSERVATIONS.

INZ001>003-010>013-019-020-272100-
NORTHWEST INDIANA

CITY           SKY/WX    TMP DP  RH WIND       PRES   REMARKS
GARY /AIRPORT/ PTSUNNY   77  57  50 W14G29    30.00S
KNOX *+        CLOUDY    72  63  73 SW6       29.99F
LA PORTE +     PTSUNNY   76  59  56 NW13G18   30.01R
MICHIGAN CITY+ CLOUDY    70  54  56 W9G16     30.01F
MONTICELLO +   CLOUDY    76  65  69 W15       30.01R
RENSSELAER +   PTSUNNY   75  64  69 SW13      30.01S
VALPARAISO     PTSUNNY   78  57  48 W18       30.00S

$$

LMZ046-743>745-272100-
SOUTHERN LAKE MICHIGAN

STATION/POSITION TIME  TEMP    WIND        PRES    WAVE
                       AIR SEA DIR/SP/G            HT
                 (UTC) (F)     (DEG/KT/KT) (MB)    (FT)
BURNS HARBOR     2000   62     290/  7/ 10 1016.3S
MICHIGAN CITY    2000   62     240/ 13/ 16   N/A
5NW MICH CITY    2000   58 52  310/  8/ 12   N/A     1

$$

INZ004-005-014>016-021>024-272100-
NORTH CENTRAL INDIANA

CITY           SKY/WX    TMP DP  RH WIND       PRES   REMARKS
ELKHART        PTSUNNY   72  66  83 S6        30.00S
GOSHEN         LGT RAIN  68  64  87 SW10      30.00F
LOGANSPORT +   CLOUDY    72  64  78 SW5       30.01F
PERU/GRISSOM   MOSUNNY   79  64  61 W15       29.99F
ROCHESTER +    LGT RAIN  72  64  78 W10G17    30.02S
SOUTH BEND     CLOUDY    75  58  55 NW18G24   30.00S
WARSAW +       CLOUDY    70  61  73 W14G22    30.01S

$$

INZ006>009-017-018-025>027-272100-
NORTHEAST INDIANA

CITY           SKY/WX    TMP DP  RH WIND       PRES   REMARKS
ANGOLA *+      PTSUNNY   73  66  78 W10       30.00S
AUBURN +       CLOUDY    70  63  78 W7        30.02S
FORT WAYNE     CLOUDY    74  66  76 W13G22    30.02R
HUNTINGTON +   PTSUNNY   74  66  75 W10       30.01R

$$

INZ028-029-035-036-043>045-051>053-272100-
WEST CENTRAL INDIANA

CITY           SKY/WX    TMP DP  RH WIND       PRES   REMARKS
CRAWFORDSVL +  PTSUNNY   80  47  31 SW15G22   30.04S
GREENCASTLE +  MOSUNNY   79  54  41 SW3       30.06S
LAFAYETTE      CLOUDY    73  66  78 SW10      30.01R THUNDER
TERRE HAUTE    MOSUNNY   81  59  47 S12G22    30.05R

$$

INZ030>032-037>040-046>048-054>057-064-065-272100-
CENTRAL INDIANA

CITY           SKY/WX    TMP DP  RH WIND       PRES   REMARKS
ANDERSON       MOSUNNY   81  54  39 SW12G23   30.05R
CP ATTERBURY + CLOUDY    77  63  61 SW10      30.07S
COLUMBUS       PTSUNNY   77  61  57 SW9G18    30.06R
FISHERS *+     CLOUDY    77  63  61 W13G18    30.04R
FRANKFORT +    CLOUDY    81  58  45 S16G24    30.04S
GREENWOOD *+   CLOUDY    79  59  50 SW10G18   30.06
INDIANAPOLIS   PTSUNNY   77  60  55 SW16      30.04R
-EAGLE CREEK   PTSUNNY   81  57  43 SW15G21   30.04R
KOKOMO *+      CLOUDY    81  63  54 W22G28    30.01S
MARION +       PTSUNNY   82  53  36 W28       30.02R
MT COMFORT *+  CLOUDY    79  50  36 SW13      30.05R
SHELBYVILLE    CLOUDY    81  64  56 SW15      30.05R
ZIONSVILLE +   CLOUDY    85  50  30 SW25G31   30.05R

$$

INZ033-034-041-042-049-050-058-059-272100-
EAST CENTRAL INDIANA

CITY           SKY/WX    TMP DP  RH WIND       PRES   REMARKS
MUNCIE         PTSUNNY   83  59  44 SW14G26   30.03R

$$

INZ060-061-067>069-081>083-085>088-272100-
SOUTHWEST INDIANA

CITY           SKY/WX    TMP DP  RH WIND       PRES   REMARKS
EVANSVILLE     CLOUDY    79  67  66 SW13      30.10F
HUNTINGBURG *+ CLOUDY    79  64  61 SW10      30.09R
WASHINGTON +   CLOUDY    82  56  40 SW10      30.05F

$$

INZ062-063-066-070>080-084-089>092-272100-
SOUTH CENTRAL AND SOUTHEAST INDIANA

CITY           SKY/WX    TMP DP  RH WIND       PRES   REMARKS
BLOOMINGTON    PTSUNNY   81  63  54 W10       30.06S
MADISON *+     CLOUDY    79  63  57 S10G17    30.09F
NORTH VERNON + CLOUDY    79  64  61 S12       30.08S
SEYMOUR +      CLOUDY    84  63  48 S14       30.06R

$$




USA.gov is the U.S. government's official web portal to all federal, state and local government web resources and services.